Wind_Speed
38 39 39 39 39 40 40 41 41 42 42 43 44 44 44 44 44 44 44 46 46 46 46 46 47 47 47 46 46 46 46 46 45 45 45 45 45 44 44 44 43 43 43
39 39 38 39 39 40 41 41 41 42 43 44 44 45 45 46 46 46 46 47 47 47 48 48 49 49 48 48 48 48 48 48 48 48 48 47 47 47 46 46 46 45 45
39 39 40 39 39 40 41 41 42 42 43 44 45 45 46 46 46 47 48 48 48 49 49 50 50 50 50 49 50 50 50 50 50 50 50 49 48 48 48 48 48 48 48
39 39 40 40 40 40 40 41 41 42 43 43 44 45 46 47 47 47 48 49 50 50 50 51 51 51 51 51 51 52 52 52 51 51 51 51 51 51 50 50 50 50 50
38 39 40 39 40 40 40 41 41 42 43 44 44 45 46 46 47 48 49 50 50 51 51 52 52 52 52 52 53 53 52 52 52 52 52 53 53 53 53 53 53 53 53
38 38 39 39 39 40 41 41 42 42 43 43 44 45 45 46 47 48 49 49 50 51 51 51 51 52 52 53 54 54 54 54 54 54 53 53 54 54 55 54 54 55 54
37 38 38 39 39 40 40 41 41 41 42 43 44 44 45 46 46 47 48 49 50 51 51 52 51 51 51 52 53 54 55 55 55 55 55 54 55 55 56 56 55 56 55
37 37 37 38 39 39 40 41 42 42 43 43 43 44 45 45 46 46 48 49 50 51 52 53 52 51 51 52 52 53 54 55 55 55 55 55 54 55 56 56 56 57 57
36 36 37 38 38 39 40 41 42 43 43 44 44 44 45 45 45 46 47 48 49 50 52 53 53 53 52 52 52 52 53 54 54 54 54 55 55 55 56 57 57 58 58
36 37 37 38 39 40 41 41 42 43 44 45 44 44 44 44 44 45 46 48 49 50 51 52 53 54 53 52 53 53 54 54 54 55 55 55 55 56 56 57 57 58 58
36 37 38 39 40 41 42 42 43 43 44 44 44 44 44 44 45 45 46 47 48 49 49 50 52 53 53 53 53 53 54 55 55 56 56 56 56 57 57 58 59 59 60
37 37 38 39 40 41 41 42 42 43 43 43 43 43 44 44 44 45 46 47 47 47 49 49 51 52 52 53 53 54 54 54 54 55 56 57 57 57 58 58 59 60 60
37 37 38 38 39 40 41 42 42 42 42 42 42 43 44 43 44 45 45 45 46 47 48 49 50 51 52 53 53 54 55 55 55 56 56 57 58 59 59 59 60 60 61
37 37 37 38 39 40 40 41 42 42 42 42 42 43 43 44 44 44 45 45 46 47 48 49 50 51 52 53 54 54 55 54 55 55 57 58 58 59 59 59 59 60 60
36 37 38 38 39 39 39 40 40 41 41 41 42 43 43 43 44 45 45 46 46 46 48 49 49 50 51 52 54 55 55 55 55 56 57 58 58 59 59 59 59 60 61
36 37 37 37 37 37 37 37 38 39 40 41 42 43 43 44 44 45 46 46 46 46 48 48 48 49 50 52 53 54 55 55 55 55 56 57 58 59 59 60 60 61 61
36 36 36 36 36 36 36 36 36 37 38 40 42 43 43 43 44 44 45 46 47 48 48 49 50 50 51 52 53 54 55 55 56 56 57 57 58 58 58 59 59 61 61
35 35 35 35 35 35 35 35 36 36 37 39 40 41 42 42 43 44 45 46 47 47 48 49 51 51 51 52 53 54 56 55 56 56 57 57 57 57 58 59 60 61 61
33 33 33 33 33 34 35 35 36 36 36 37 38 39 41 42 42 44 45 45 46 47 48 49 51 51 52 52 53 54 55 55 55 56 56 56 56 57 58 59 60 60 60
32 33 32 32 33 33 34 34 35 36 36 37 38 38 39 40 42 43 44 44 46 47 49 49 49 50 50 50 51 52 53 53 53 53 54 54 56 57 58 58 58 58 59
32 32 33 33 33 34 34 34 34 35 35 36 37 38 39 40 40 41 42 43 44 46 46 47 47 48 48 49 50 50 50 51 51 52 52 53 53 53 54 55 55 55 55
32 32 32 33 33 33 34 34 35 35 36 36 37 38 39 40 40 41 42 42 43 44 44 45 45 45 46 46 46 47 48 49 50 50 51 51 51 51 51 52 52 52 53
32 32 33 33 33 33 34 35 35 36 36 37 37 38 38 39 39 40 41 42 42 43 43 43 42 42 42 43 44 45 46 47 48 49 50 50 50 50 50 50 51 51 51
33 33 34 34 34 35 35 35 35 35 36 37 37 37 38 38 39 39 40 40 41 41 41 41 41 41 42 42 43 43 44 45 47 48 49 49 50 50 50 50 50 50 51
33 33 34 34 35 35 35 34 34 35 35 36 37 37 38 38 38 39 39 39 39 40 40 41 41 41 41 41 41 43 43 44 45 46 47 48 49 50 50 50 50 50 51
31 32 32 32 33 33 33 34 34 34 35 35 36 36 36 37 38 38 39 39 39 40 40 40 41 41 42 42 42 42 43 44 44 45 45 45 47 48 49 49 49 49 49
Wind_Direction
265 264 263 263 262 263 263 262 261 260 259 259 257 256 256 255 254 255 255 256 256 257 257 257 257 259 259 258 258 257 257 257 257 256 255 255 254 253 252 251 251 252 252
264 264 263 262 262 262 262 262 261 260 259 258 257 257 256 255 256 256 256 257 257 258 259 259 258 259 259 258 258 258 258 257 257 257 256 255 254 254 253 252 251 251 252
263 263 263 263 262 262 262 262 261 260 259 258 259 258 258 258 259 260 258 258 259 259 259 260 260 259 258 258 258 258 258 258 258 257 257 256 255 255 253 252 252 251 252
262 262 263 263 263 262 262 261 261 260 260 259 259 260 259 259 261 261 260 259 259 259 259 259 260 259 258 258 257 257 258 258 258 258 257 256 256 255 253 252 252 252 252
262 262 262 263 262 262 262 262 261 261 261 260 260 260 260 261 261 261 261 261 262 262 261 261 260 259 259 258 257 257 258 258 258 258 258 257 256 255 254 253 252 252 252
263 263 263 262 262 262 262 262 263 262 262 262 262 262 262 262 262 261 261 262 262 262 262 261 261 260 259 258 257 258 258 258 258 258 258 257 257 256 255 254 253 253 253
264 263 263 263 262 263 263 264 263 263 263 263 264 264 263 263 263 263 262 262 262 262 261 261 261 262 261 260 259 259 259 259 259 258 258 257 257 257 256 255 254 253 253
266 264 264 264 264 265 264 264 264 264 264 264 263 264 264 264 265 265 264 263 263 263 262 262 262 263 262 261 260 260 260 260 259 258 258 258 258 258 257 256 255 254 253
267 266 265 265 265 265 266 266 265 265 265 265 264 264 264 265 265 265 265 264 264 263 263 262 262 262 263 262 261 260 260 260 259 258 258 258 258 259 259 257 257 256 255
269 269 267 267 266 265 266 266 266 265 264 264 265 264 265 265 265 265 265 265 265 264 264 263 262 262 263 262 261 260 260 260 259 258 258 259 259 259 260 259 258 257 256
271 271 270 268 268 268 267 267 267 266 265 263 263 263 264 264 264 265 266 265 265 265 265 264 263 262 263 262 261 261 261 261 260 259 259 259 259 260 260 260 259 258 257
272 271 271 271 270 269 268 268 267 267 265 264 263 263 264 264 264 265 265 265 266 266 265 264 263 262 262 262 261 261 262 261 261 260 260 259 259 261 261 260 260 259 258
274 274 273 272 272 271 270 268 267 266 265 263 263 263 263 263 264 265 265 265 266 267 266 265 263 262 262 262 262 262 263 263 262 261 260 260 260 261 261 260 261 261 260
275 275 275 274 273 273 272 269 267 266 265 264 264 264 265 265 264 265 265 266 267 267 267 265 264 263 262 262 263 262 263 263 263 262 261 261 261 261 261 261 261 261 260
276 275 275 275 274 273 272 270 267 266 265 266 266 265 266 265 264 265 266 266 267 266 267 266 264 263 264 264 263 263 263 263 263 262 262 262 261 261 261 261 261 261 260
277 276 275 274 274 273 271 270 268 267 267 266 266 266 266 266 266 266 266 267 267 268 268 267 266 265 266 266 265 265 264 263 263 262 263 263 263 261 261 261 261 262 261
279 277 276 274 273 273 272 271 270 269 269 268 268 267 267 268 268 268 267 267 269 269 269 268 267 267 268 268 266 266 265 264 263 263 263 263 263 262 262 261 262 262 262
279 278 276 275 274 273 273 273 272 271 271 271 270 269 269 269 269 269 269 269 270 270 270 269 269 268 268 268 267 266 266 265 264 263 263 263 263 262 262 262 262 262 262
278 278 277 277 276 275 274 274 274 273 273 273 272 272 271 270 270 270 270 271 271 271 272 272 271 270 268 269 268 268 267 266 265 264 264 263 262 262 262 263 263 263 263
278 277 277 277 278 277 276 276 274 273 273 273 273 273 273 273 273 272 272 273 273 273 274 274 273 271 270 269 269 268 267 266 265 265 265 265 264 264 264 264 264 263 263
279 278 278 278 278 278 278 277 276 275 274 274 274 274 274 275 275 274 275 275 276 276 276 275 274 273 272 271 270 269 268 267 266 265 265 266 265 265 265 265 265 265 264
280 279 280 280 279 279 279 279 278 277 276 275 275 276 275 275 275 276 276 276 277 277 277 276 275 275 274 273 271 270 269 268 266 266 265 265 265 266 266 266 266 266 265
281 280 280 281 281 281 280 280 280 279 278 277 277 277 277 276 277 277 277 277 278 278 277 277 276 276 275 274 273 272 270 269 268 267 266 265 265 265 266 266 266 266 265
282 282 282 282 282 282 282 282 282 281 280 279 279 278 278 279 279 279 279 279 279 279 278 277 277 277 276 276 275 275 274 273 271 269 268 267 265 265 266 266 267 267 266
283 282 283 284 284 284 283 283 283 283 283 281 280 280 279 280 280 280 279 280 280 280 279 278 278 278 278 277 277 276 275 274 273 271 269 267 266 266 266 266 266 266 266
284 284 285 285 286 286 285 286 286 286 285 284 283 282 281 280 280 281 280 281 281 281 280 280 279 279 278 277 278 277 276 274 273 271 270 269 268 267 267 266 265 265 266
Height
5706 5705 5705 5705 5705 5705 5705 5705 5705 5706 5706 5707 5709 5710 5712 5713 5715 5716 5718 5719 5721 5722 5723 5725 5727 5728 5729 5730 5731 5732 5734 5735 5736 5737 5739 5741 5742 5743 5745 5747 5750 5752 5754
5695 5695 5694 5694 5694 5694 5694 5694 5694 5695 5696 5696 5698 5699 5700 5702 5703 5704 5706 5707 5708 5710 5711 5712 5714 5715 5716 5718 5719 5720 5721 5723 5724 5725 5727 5729 5731 5732 5734 5736 5738 5741 5743
5685 5684 5684 5683 5683 5683 5683 5683 5683 5684 5685 5686 5686 5687 5688 5690 5691 5692 5693 5694 5695 5696 5698 5699 5700 5701 5703 5705 5706 5707 5708 5710 5711 5712 5714 5715 5718 5720 5722 5723 5726 5728 5731
5674 5673 5673 5673 5673 5673 5672 5672 5673 5673 5674 5674 5675 5676 5677 5678 5678 5679 5680 5680 5681 5682 5684 5685 5686 5687 5689 5691 5692 5693 5695 5696 5697 5698 5700 5702 5704 5706 5709 5711 5713 5715 5718
5662 5662 5662 5662 5662 5662 5662 5662 5662 5662 5663 5663 5664 5664 5665 5665 5665 5665 5666 5667 5668 5668 5669 5670 5672 5673 5675 5676 5678 5679 5680 5682 5683 5684 5686 5687 5689 5691 5694 5697 5700 5702 5704
5651 5651 5651 5651 5651 5651 5651 5651 5651 5651 5652 5652 5652 5652 5652 5652 5652 5652 5653 5653 5654 5654 5655 5656 5657 5658 5660 5661 5663 5664 5665 5667 5668 5670 5671 5673 5675 5677 5679 5682 5685 5688 5690
5641 5640 5640 5640 5640 5640 5640 5640 5640 5640 5640 5640 5640 5640 5640 5640 5639 5639 5639 5640 5640 5640 5641 5642 5643 5644 5645 5646 5648 5649 5650 5652 5653 5655 5656 5658 5660 5662 5664 5667 5670 5673 5676
5629 5629 5629 5629 5629 5629 5629 5628 5628 5628 5628 5628 5628 5627 5627 5627 5626 5626 5626 5626 5627 5627 5627 5627 5629 5629 5631 5632 5633 5634 5635 5636 5638 5639 5641 5643 5645 5647 5649 5651 5654 5657 5661
5618 5618 5617 5617 5617 5617 5617 5617 5617 5616 5616 5616 5616 5615 5615 5614 5614 5613 5613 5613 5613 5613 5613 5613 5614 5615 5616 5617 5618 5620 5621 5622 5623 5625 5626 5628 5630 5632 5634 5636 5638 5641 5644
5607 5607 5606 5606 5606 5605 5605 5605 5604 5604 5604 5604 5604 5603 5603 5602 5601 5601 5601 5600 5600 5599 5599 5599 5600 5601 5602 5602 5604 5605 5606 5607 5609 5611 5612 5614 5615 5617 5618 5620 5622 5624 5627
5596 5596 5595 5595 5594 5594 5593 5593 5592 5592 5591 5591 5591 5591 5590 5589 5589 5588 5588 5588 5587 5586 5586 5585 5586 5586 5587 5588 5589 5591 5592 5593 5594 5596 5597 5599 5600 5601 5603 5605 5606 5608 5610
5585 5584 5584 5583 5582 5582 5581 5581 5580 5579 5579 5579 5578 5578 5578 5577 5576 5576 5575 5575 5574 5573 5572 5571 5571 5572 5573 5573 5575 5577 5577 5578 5579 5581 5582 5584 5585 5586 5587 5589 5590 5592 5593
5574 5573 5572 5571 5570 5570 5569 5568 5567 5567 5566 5566 5566 5565 5565 5564 5564 5563 5562 5561 5560 5560 5558 5558 5558 5558 5559 5560 5561 5562 5563 5564 5565 5566 5567 5568 5569 5571 5571 5573 5574 5575 5576
5563 5561 5560 5559 5558 5557 5557 5556 5555 5554 5554 5553 5553 5553 5552 5551 5551 5550 5549 5548 5548 5547 5546 5545 5545 5545 5545 5546 5547 5548 5549 5549 5550 5551 5552 5553 5554 5555 5555 5556 5557 5558 5559
5552 5551 5549 5548 5546 5545 5544 5543 5543 5542 5541 5541 5541 5540 5540 5539 5538 5537 5536 5536 5535 5534 5533 5532 5532 5531 5532 5532 5532 5533 5534 5535 5535 5536 5536 5537 5538 5538 5539 5540 5541 5541 5542
5541 5539 5538 5536 5535 5533 5532 5531 5531 5530 5530 5529 5528 5528 5527 5526 5526 5525 5524 5523 5522 5521 5520 5519 5518 5518 5518 5518 5518 5518 5519 5519 5520 5520 5521 5521 5522 5522 5523 5524 5524 5525 5525
5530 5528 5527 5525 5524 5522 5521 5520 5519 5518 5518 5517 5516 5515 5515 5514 5513 5512 5511 5510 5509 5508 5506 5505 5505 5504 5504 5503 5503 5503 5503 5504 5505 5505 5505 5505 5505 5505 5506 5507 5507 5507 5508
5519 5518 5516 5515 5513 5512 5511 5509 5508 5507 5506 5505 5504 5503 5502 5501 5500 5499 5498 5497 5495 5494 5493 5492 5491 5490 5489 5488 5488 5487 5487 5488 5489 5489 5489 5489 5489 5489 5489 5490 5490 5491 5491
5509 5507 5506 5504 5503 5501 5500 5499 5497 5496 5495 5494 5492 5491 5490 5489 5488 5486 5485 5483 5482 5481 5480 5478 5476 5475 5474 5473 5472 5471 5471 5472 5472 5472 5473 5473 5473 5474 5473 5473 5474 5474 5474
5498 5497 5496 5494 5493 5491 5490 5488 5487 5485 5484 5483 5481 5480 5478 5477 5476 5474 5472 5470 5469 5467 5465 5463 5461 5460 5459 5458 5457 5455 5455 5456 5457 5457 5457 5457 5457 5456 5455 5455 5455 5456 5457
5489 5487 5486 5484 5483 5481 5479 5478 5476 5475 5473 5472 5470 5469 5467 5465 5463 5461 5459 5457 5456 5454 5451 5450 5447 5445 5444 5443 5441 5440 5439 5440 5440 5440 5441 5441 5440 5439 5438 5438 5438 5439 5440
5479 5477 5476 5474 5472 5471 5469 5467 5465 5464 5462 5460 5459 5457 5455 5453 5451 5449 5447 5445 5443 5440 5438 5436 5434 5431 5429 5428 5427 5426 5424 5424 5424 5425 5425 5425 5424 5423 5423 5422 5422 5423 5422
5469 5467 5465 5464 5462 5460 5458 5456 5454 5452 5450 5448 5447 5445 5443 5441 5439 5437 5435 5432 5430 5428 5425 5423 5421 5418 5416 5414 5413 5411 5410 5409 5409 5409 5409 5409 5408 5408 5407 5407 5407 5406 5406
5459 5457 5455 5453 5451 5449 5447 5445 5443 5440 5438 5437 5435 5433 5431 5429 5426 5424 5422 5420 5417 5415 5412 5410 5408 5406 5403 5401 5399 5397 5396 5394 5393 5393 5393 5393 5393 5392 5393 5392 5392 5391 5391
5449 5447 5445 5443 5441 5438 5436 5434 5431 5429 5427 5425 5423 5420 5418 5416 5414 5412 5409 5407 5405 5402 5400 5397 5395 5393 5391 5388 5386 5384 5383 5381 5379 5378 5378 5378 5377 5377 5377 5377 5376 5376 5376
5439 5437 5435 5432 5430 5428 5425 5423 5420 5418 5416 5413 5411 5409 5406 5404 5402 5400 5397 5395 5393 5390 5387 5384 5382 5380 5378 5375 5373 5371 5369 5367 5365 5364 5363 5363 5362 5362 5361 5361 5361 5361 5361